TimeMST,TemperatureF,Dew PointF,Humidity,Sea Level PressureIn,VisibilityMPH,Wind Direction,Wind SpeedMPH,Gust SpeedMPH,PrecipitationIn,Events,Conditions,WindDirDegrees,DateUTC
12:51 AM,52.0,39.9,63,30.03,10.0,Calm,Calm,-,N/A,,Mostly Cloudy,0,2013-01-26 07:51:00
1:51 AM,51.1,39.9,66,30.01,10.0,North,4.6,-,N/A,,Mostly Cloudy,350,2013-01-26 08:51:00
2:51 AM,51.1,41.0,68,29.98,10.0,East,3.5,-,0.00,,Overcast,80,2013-01-26 09:51:00
3:51 AM,48.9,39.9,71,29.98,10.0,ENE,4.6,-,N/A,,Overcast,60,2013-01-26 10:51:00
4:51 AM,48.0,39.0,71,29.96,10.0,Calm,Calm,-,N/A,,Mostly Cloudy,0,2013-01-26 11:51:00
5:51 AM,48.0,39.0,71,29.94,10.0,North,5.8,-,N/A,,Mostly Cloudy,10,2013-01-26 12:51:00
6:51 AM,48.0,37.9,68,29.96,10.0,NNE,8.1,-,N/A,,Mostly Cloudy,20,2013-01-26 13:51:00
7:51 AM,48.9,37.9,66,29.98,10.0,North,5.8,-,N/A,,Mostly Cloudy,360,2013-01-26 14:51:00
8:51 AM,50.0,39.0,66,30.01,10.0,Calm,Calm,-,N/A,,Mostly Cloudy,0,2013-01-26 15:51:00
9:51 AM,54.0,39.0,57,30.02,10.0,Calm,Calm,-,N/A,,Mostly Cloudy,0,2013-01-26 16:51:00
10:51 AM,57.0,39.9,53,30.01,10.0,Calm,Calm,-,N/A,,Mostly Cloudy,0,2013-01-26 17:51:00
11:51 AM,57.9,42.1,56,29.96,10.0,ESE,4.6,-,0.00,,Mostly Cloudy,120,2013-01-26 18:51:00
12:51 PM,60.1,42.1,51,29.92,10.0,SSE,6.9,-,N/A,,Mostly Cloudy,150,2013-01-26 19:51:00
1:51 PM,62.6,42.8,48,29.99,10.0,SW,5.8,-,N/A,,Mostly Cloudy,220,2013-01-26 20:51:00
2:51 PM,64.0,42.1,45,29.86,10.0,SSW,9.2,-,N/A,,Mostly Cloudy,200,2013-01-26 21:51:00
3:51 PM,64.9,42.1,43,29.86,10.0,South,6.9,-,N/A,,Mostly Cloudy,190,2013-01-26 22:51:00
4:51 PM,66.9,42.1,40,29.85,10.0,WSW,6.9,-,N/A,,Mostly Cloudy,240,2013-01-26 23:51:00
5:51 PM,63.0,44.1,50,29.87,10.0,SW,8.1,-,N/A,,Mostly Cloudy,220,2013-01-27 00:51:00
6:51 PM,59.0,46.0,62,29.90,10.0,WSW,6.9,-,N/A,,Scattered Clouds,240,2013-01-27 01:51:00
7:51 PM,59.0,46.9,64,29.90,10.0,SW,3.5,-,N/A,,Scattered Clouds,230,2013-01-27 02:51:00
8:51 PM,60.1,45.0,57,29.91,10.0,WSW,18.4,-,N/A,,Scattered Clouds,250,2013-01-27 03:51:00
9:51 PM,59.0,43.0,55,29.91,10.0,WSW,17.3,-,N/A,,Mostly Cloudy,250,2013-01-27 04:51:00
10:51 PM,61.0,42.1,50,29.89,10.0,West,13.8,20.7,N/A,,Mostly Cloudy,260,2013-01-27 05:51:00
11:51 PM,59.0,43.0,55,29.89,10.0,WSW,8.1,19.6,N/A,,Mostly Cloudy,240,2013-01-27 06:51:00